Flag for U.S.A. Weather past 2 weeks in St. Croix Falls, Wisconsin, U.S.A.

Now
20 °F

Overcast.


Feels Like: 9 °F
Forecast: 14 / 25 °F
Wind: 9 mph from Northeast

Location: L O Simenstad Municipal Airport

Current Time: Jan 25, 2015 at 11:01:15 AM

Latest Report: Jan 25, 2015 at 10:15 AM


Visibility: 10 mi

Pressure: 30.06 "Hg

Humidity: 68%

Dew point: 11 °F

Location of St. Croix FallsLocation

Historic Weather in St. Croix Falls — Graph

°F

St. Croix Falls temperature yesterday

Maximum temperature yesterday: 40 °F (at 1:55 PM)
Minimum temperature yesterday: 25 °F (at 6:35 AM)
Average temperature yesterday: 33 °F

Past Weeks' High & Low Weather Summary

 TemperatureHumidityPressure
High40 °F (Jan 24, 1:55 PM)100% (Jan 15, 5:55 AM)30.82 "Hg (Jan 15, 5:55 AM)
Low-20 °F (Jan 13, 3:15 AM)57% (Jan 12, 4:15 PM)29.48 "Hg (Jan 17, 1:55 PM)
Average21 °F81%30.08 "Hg
* Reported Jan 10 9:15 AM — Jan 25 9:55 AM, St. Croix Falls, Weather by CustomWeather, © 2014

Note: Actual official high and low records may vary slightly from our data, if they occured in-between our weather recording intervals... More about our weather records

Advertising

St. Croix Falls weather history for previous 24 hours

 ConditionsComfort  
Time TempWeatherWind HumidityBarometerVisibility
9:55 AM
Jan 25
19 °FOvercast.10 mph69%30.04 "Hg10 mi
9:15 AM19 °FOvercast.14 mph68%30.02 "Hg10 mi
8:55 AM19 °FOvercast.9 mph70%30.01 "Hg10 mi
8:35 AM18 °FOvercast.10 mph70%30.00 "Hg10 mi
8:15 AM18 °FOvercast.9 mph70%29.99 "Hg10 mi
7:55 AM18 °FPartly sunny.10 mph71%30.00 "Hg10 mi
7:15 AM18 °FClear.14 mph70%29.98 "Hg10 mi
6:55 AM19 °FPassing clouds.12 mph72%29.97 "Hg10 mi
6:35 AM20 °FPassing clouds.10 mph73%29.97 "Hg10 mi
6:15 AM20 °FPassing clouds.14 mph72%29.95 "Hg10 mi
5:55 AM21 °FPassing clouds.16 mph71%29.94 "Hg10 mi
5:35 AM21 °FOvercast.14 mph72%29.93 "Hg10 mi
5:15 AM22 °FPartly cloudy.16 mph73%29.92 "Hg10 mi
4:55 AM22 °FOvercast.15 mph73%29.91 "Hg10 mi
4:35 AM23 °FOvercast.13 mph75%29.89 "Hg10 mi
4:15 AM24 °FOvercast.13 mph73%29.88 "Hg10 mi
3:55 AM25 °FOvercast.12 mph73%29.87 "Hg10 mi
3:35 AM26 °FMostly cloudy.16 mph71%29.86 "Hg10 mi
3:15 AM26 °FMostly cloudy.13 mph73%29.85 "Hg10 mi
2:55 AM28 °FOvercast.12 mph75%29.84 "Hg10 mi
2:35 AM28 °FOvercast.14 mph75%29.82 "Hg10 mi
2:15 AM29 °FOvercast.13 mph77%29.81 "Hg10 mi
1:55 AM29 °FOvercast.12 mph78%29.80 "Hg10 mi
1:15 AM30 °FOvercast.14 mph80%29.79 "Hg10 mi
12:55 AM31 °FOvercast.13 mph81%29.78 "Hg10 mi
12:35 AM31 °FOvercast.14 mph82%29.77 "Hg10 mi
12:15 AM32 °FOvercast.13 mph81%29.75 "Hg10 mi
11:55 PM
Jan 24
32 °FOvercast.15 mph84%29.74 "Hg10 mi
11:35 PM34 °FOvercast.12 mph84%29.74 "Hg10 mi
11:15 PM35 °FMostly cloudy.13 mph85%29.72 "Hg10 mi
10:55 PM36 °FOvercast.12 mph84%29.70 "Hg10 mi
10:15 PM36 °FOvercast.7 mph83%29.69 "Hg10 mi
9:15 PM36 °FOvercast.6 mph83%29.67 "Hg10 mi
8:55 PM36 °FOvercast.5 mph82%29.66 "Hg10 mi
8:15 PM36 °FOvercast.3 mph82%29.65 "Hg10 mi
7:55 PM36 °FOvercast.3 mph83%29.65 "Hg10 mi
7:35 PM36 °FMostly cloudy.5 mph83%29.64 "Hg10 mi
7:15 PM36 °FMostly cloudy.3 mph83%29.64 "Hg10 mi
6:55 PM35 °FOvercast.3 mph89%29.64 "Hg10 mi
6:35 PM35 °FOvercast.No wind87%29.64 "Hg10 mi
6:15 PM36 °FOvercast.3 mph82%29.64 "Hg10 mi
5:55 PM35 °FPassing clouds.No wind86%29.64 "Hg10 mi
5:35 PM35 °FClear.5 mph83%29.63 "Hg10 mi
5:15 PM37 °FClear.3 mph78%29.62 "Hg10 mi
4:55 PM37 °FSunny.3 mph78%29.62 "Hg10 mi
4:15 PM39 °FPartly sunny.No wind72%29.61 "Hg10 mi
3:55 PM39 °FOvercast.No wind74%29.61 "Hg10 mi
3:35 PM40 °FOvercast.3 mph73%29.61 "Hg10 mi
3:15 PM39 °FOvercast.No wind74%29.61 "Hg10 mi
2:55 PM40 °FOvercast.No wind72%29.61 "Hg10 mi
2:15 PM40 °FOvercast.No wind71%29.62 "Hg10 mi
1:55 PM40 °FOvercast.3 mph71%29.62 "Hg10 mi
1:35 PM40 °FPartly sunny.No wind72%29.63 "Hg10 mi
1:15 PM39 °FPartly sunny.No wind73%29.63 "Hg10 mi
12:55 PM40 °FScattered clouds.No wind74%29.64 "Hg10 mi
12:35 PM39 °FScattered clouds.No wind75%29.65 "Hg10 mi
12:15 PM39 °FScattered clouds.5 mph76%29.66 "Hg10 mi
11:55 AM38 °FPartly sunny.5 mph80%29.67 "Hg10 mi
11:15 AM36 °FOvercast.3 mph88%29.69 "Hg10 mi
Weather by CustomWeather, © 2014

See weather overviewHow to use our weather pages